| time (UTC) | temp F | wind direction | speed MPH | gust MPH | rain 1hr in | rain 24hr in | rain mn in | humidity % | barometer mb |
| 20260905135531 | 61 | 288 | 1.0 | 5.0 | 0.00 | 0.01 | 0.00 | 71 | 1021.0 |
| 20260905135033 | 61 | 259 | 1.0 | 5.0 | 0.00 | 0.01 | 0.00 | 70 | 1021.0 |
| 20260905134559 | 61 | 309 | 1.0 | 3.0 | 0.00 | 0.01 | 0.00 | 71 | 1021.0 |
| 20260905134032 | 61 | 319 | 1.0 | 3.0 | 0.00 | 0.01 | 0.00 | 72 | 1021.1 |
| 20260905133535 | 61 | 186 | 1.0 | 3.0 | 0.00 | 0.01 | 0.00 | 72 | 1021.0 |
| 20260905133054 | 61 | 291 | 1.0 | 3.0 | 0.00 | 0.01 | 0.00 | 72 | 1021.0 |
| 20260905132532 | 61 | 294 | 1.0 | 3.0 | 0.00 | 0.01 | 0.00 | 72 | 1020.8 |
| 20260905132034 | 61 | 298 | 1.0 | 3.0 | 0.00 | 0.01 | 0.00 | 71 | 1020.8 |
| 20260905131547 | 61 | 283 | 1.0 | 3.0 | 0.00 | 0.01 | 0.00 | 71 | 1020.7 |
| 20260905131031 | 61 | 323 | 0.0 | 3.0 | 0.00 | 0.01 | 0.00 | 70 | 1020.7 |
| 20260905130531 | 61 | 345 | 0.0 | 4.0 | 0.00 | 0.01 | 0.00 | 71 | 1020.7 |
| 20260905130053 | 61 | 260 | 1.0 | 4.0 | 0.00 | 0.01 | 0.00 | 70 | 1020.8 |
| 20260905125531 | 61 | 311 | 1.0 | 3.0 | 0.00 | 0.01 | 0.00 | 70 | 1020.7 |
| 20260905125032 | 61 | 311 | 0.0 | 3.0 | 0.00 | 0.01 | 0.00 | 70 | 1020.6 |
| 20260905124551 | 61 | 285 | 1.0 | 3.0 | 0.00 | 0.01 | 0.00 | 69 | 1020.5 |
| 20260905124033 | 62 | 264 | 1.0 | 3.0 | 0.00 | 0.01 | 0.00 | 70 | 1020.5 |
| 20260905123532 | 62 | 255 | 1.0 | 4.0 | 0.00 | 0.01 | 0.00 | 70 | 1020.5 |
| 20260905123049 | 62 | 325 | 1.0 | 4.0 | 0.00 | 0.01 | 0.00 | 69 | 1020.4 |
| 20260905122534 | 62 | 289 | 1.0 | 4.0 | 0.00 | 0.01 | 0.00 | 71 | 1020.3 |
| 20260905122033 | 61 | 299 | 1.0 | 4.0 | 0.00 | 0.01 | 0.00 | 72 | 1020.4 |
| 20260905121544 | 60 | 280 | 1.0 | 4.0 | 0.00 | 0.01 | 0.00 | 71 | 1020.5 |
| 20260905121032 | 60 | 302 | 2.0 | 4.0 | 0.00 | 0.01 | 0.00 | 71 | 1020.4 |
| 20260905120532 | 61 | 282 | 1.0 | 4.0 | 0.00 | 0.01 | 0.00 | 71 | 1020.4 |
| 20260905120045 | 61 | 271 | 1.0 | 4.0 | 0.00 | 0.01 | 0.00 | 71 | 1020.2 |
| 20260905115531 | 62 | 255 | 1.0 | 4.0 | 0.00 | 0.01 | 0.00 | 69 | 1020.3 |
| 20260905115034 | 62 | 302 | 2.0 | 4.0 | 0.00 | 0.01 | 0.00 | 69 | 1020.3 |
| 20260905114549 | 62 | 281 | 1.0 | 4.0 | 0.00 | 0.01 | 0.00 | 70 | 1020.2 |
| 20260905114035 | 61 | 271 | 1.0 | 4.0 | 0.00 | 0.01 | 0.00 | 70 | 1020.1 |
| 20260905113530 | 61 | 289 | 1.0 | 4.0 | 0.00 | 0.01 | 0.00 | 71 | 1020.2 |
| 20260905113045 | 61 | 316 | 1.0 | 4.0 | 0.00 | 0.01 | 0.00 | 72 | 1020.1 |
| 20260905112532 | 61 | 281 | 1.0 | 4.0 | 0.00 | 0.01 | 0.00 | 73 | 1019.9 |
| 20260905112032 | 60 | 270 | 1.0 | 4.0 | 0.00 | 0.01 | 0.00 | 73 | 1019.9 |
| 20260905111542 | 60 | 277 | 1.0 | 3.0 | 0.00 | 0.01 | 0.00 | 73 | 1019.8 |
| 20260905111031 | 59 | 269 | 1.0 | 4.0 | 0.00 | 0.01 | 0.00 | 73 | 1019.8 |
| 20260905110531 | 59 | 240 | 1.0 | 5.0 | 0.00 | 0.01 | 0.00 | 73 | 1019.9 |
| 20260905110107 | 59 | 303 | 1.0 | 5.0 | 0.00 | 0.01 | 0.00 | 72 | 1019.9 |
| 20260905105531 | 60 | 300 | 1.0 | 5.0 | 0.00 | 0.02 | 0.00 | 71 | 1019.9 |
| 20260905105031 | 60 | 282 | 1.0 | 6.0 | 0.00 | 0.02 | 0.00 | 70 | 1019.8 |
| 20260905104547 | 60 | 304 | 1.0 | 6.0 | 0.00 | 0.02 | 0.00 | 70 | 1019.6 |
| 20260905104036 | 60 | 289 | 2.0 | 6.0 | 0.00 | 0.02 | 0.00 | 70 | 1019.5 |
| 20260905103532 | 60 | 311 | 2.0 | 5.0 | 0.00 | 0.02 | 0.00 | 70 | 1019.5 |
| 20260905103050 | 60 | 271 | 2.0 | 4.0 | 0.00 | 0.02 | 0.00 | 70 | 1019.5 |
| 20260905102531 | 60 | 284 | 1.0 | 6.0 | 0.00 | 0.02 | 0.00 | 71 | 1019.4 |
| 20260905102031 | 60 | 259 | 2.0 | 6.0 | 0.00 | 0.02 | 0.00 | 71 | 1019.4 |
| 20260905101604 | 60 | 277 | 1.0 | 6.0 | 0.00 | 0.02 | 0.00 | 71 | 1019.5 |
| 20260905101031 | 60 | 266 | 2.0 | 6.0 | 0.00 | 0.02 | 0.00 | 72 | 1019.2 |
| 20260905100531 | 59 | 262 | 2.0 | 5.0 | 0.00 | 0.02 | 0.00 | 71 | 1019.1 |
| 20260905100053 | 59 | 255 | 2.0 | 5.0 | 0.00 | 0.02 | 0.00 | 73 | 1019.1 |
| 20260905095532 | 59 | 283 | 2.0 | 5.0 | 0.00 | 0.15 | 0.00 | 73 | 1019.0 |
| 20260905095031 | 59 | 294 | 2.0 | 4.0 | 0.00 | 0.15 | 0.00 | 74 | 1019.1 |
| 20260905094550 | 59 | 359 | 1.0 | 4.0 | 0.00 | 0.15 | 0.00 | 75 | 1019.1 |
| 20260905094031 | 59 | 241 | 1.0 | 5.0 | 0.00 | 0.15 | 0.00 | 74 | 1019.0 |
| 20260905093532 | 58 | 289 | 1.0 | 5.0 | 0.00 | 0.15 | 0.00 | 75 | 1019.0 |
| 20260905093057 | 58 | 295 | 2.0 | 6.0 | 0.00 | 0.15 | 0.00 | 75 | 1019.0 |
| 20260905092531 | 58 | 284 | 2.0 | 6.0 | 0.00 | 0.15 | 0.00 | 75 | 1019.0 |
| 20260905092031 | 58 | 304 | 1.0 | 5.0 | 0.00 | 0.15 | 0.00 | 76 | 1018.8 |
| 20260905091554 | 58 | 283 | 1.0 | 5.0 | 0.00 | 0.15 | 0.00 | 75 | 1018.8 |
| 20260905091032 | 58 | 304 | 2.0 | 4.0 | 0.00 | 0.15 | 0.00 | 76 | 1018.7 |
| 20260905090533 | 58 | 309 | 1.0 | 4.0 | 0.00 | 0.15 | 0.00 | 76 | 1018.9 |
| 20260905090046 | 58 | 299 | 1.0 | 4.0 | 0.00 | 0.15 | 0.00 | 76 | 1018.7 |
| 20260905085535 | 58 | 286 | 1.0 | 4.0 | 0.00 | 0.22 | 0.00 | 77 | 1018.7 |
| 20260905085032 | 58 | 290 | 1.0 | 4.0 | 0.00 | 0.22 | 0.00 | 77 | 1018.4 |
| 20260905084554 | 58 | 286 | 1.0 | 4.0 | 0.00 | 0.22 | 0.00 | 77 | 1018.3 |
| 20260905084032 | 57 | 280 | 1.0 | 4.0 | 0.00 | 0.22 | 0.00 | 78 | 1018.1 |
| 20260905083532 | 57 | 272 | 1.0 | 3.0 | 0.00 | 0.22 | 0.00 | 78 | 1018.1 |
| 20260905083042 | 57 | 279 | 1.0 | 3.0 | 0.00 | 0.22 | 0.00 | 78 | 1018.2 |
| 20260905082531 | 56 | 279 | 0.0 | 2.0 | 0.00 | 0.22 | 0.00 | 78 | 1017.9 |
| 20260905082031 | 56 | 240 | 0.0 | 3.0 | 0.00 | 0.22 | 0.00 | 78 | 1018.0 |
| 20260905081550 | 56 | 294 | 1.0 | 3.0 | 0.00 | 0.22 | 0.00 | 77 | 1017.9 |
| 20260905081031 | 57 | 285 | 0.0 | 4.0 | 0.00 | 0.22 | 0.00 | 78 | 1017.7 |
| 20260905080531 | 56 | 278 | 1.0 | 4.0 | 0.00 | 0.22 | 0.00 | 78 | 1017.7 |
| 20260905080050 | 56 | 311 | 1.0 | 3.0 | 0.00 | 0.22 | 0.00 | 78 | 1017.6 |
| 20260905075531 | 56 | 217 | 1.0 | 3.0 | 0.00 | 0.25 | 0.00 | 78 | 1017.5 |
| 20260905075031 | 56 | 0 | 1.0 | 3.0 | 0.00 | 0.25 | 0.00 | 78 | 1017.4 |
| 20260905074544 | 56 | 269 | 1.0 | 3.0 | 0.00 | 0.25 | 0.00 | 78 | 1017.3 |
| 20260905074032 | 56 | 319 | 1.0 | 3.0 | 0.00 | 0.25 | 0.00 | 78 | 1017.3 |
| 20260905073531 | 56 | 316 | 1.0 | 3.0 | 0.00 | 0.25 | 0.00 | 78 | 1017.3 |
| 20260905073044 | 56 | 290 | 1.0 | 3.0 | 0.00 | 0.25 | 0.00 | 78 | 1017.2 |
| 20260905072532 | 56 | 275 | 1.0 | 3.0 | 0.00 | 0.25 | 0.00 | 78 | 1017.2 |
| 20260905072034 | 56 | 256 | 1.0 | 2.0 | 0.00 | 0.25 | 0.00 | 78 | 1017.1 |
| 20260905071542 | 56 | 283 | 0.0 | 5.0 | 0.00 | 0.25 | 0.00 | 78 | 1017.0 |
| 20260905071031 | 55 | 284 | 1.0 | 5.0 | 0.00 | 0.25 | 0.00 | 78 | 1016.8 |
| 20260905070531 | 55 | 262 | 2.0 | 5.0 | 0.00 | 0.25 | 0.00 | 77 | 1016.8 |
| 20260905070052 | 55 | 282 | 2.0 | 5.0 | 0.00 | 0.25 | 0.00 | 77 | 1016.7 |
| 20260905065532 | 55 | 281 | 1.0 | 4.0 | 0.00 | 0.26 | 0.00 | 78 | 1016.6 |
| 20260905065033 | 55 | 311 | 1.0 | 3.0 | 0.00 | 0.26 | 0.00 | 78 | 1016.6 |
| 20260905064546 | 55 | 281 | 1.0 | 3.0 | 0.00 | 0.26 | 0.00 | 78 | 1016.6 |
| 20260905064034 | 55 | 242 | 1.0 | 3.0 | 0.00 | 0.26 | 0.00 | 78 | 1016.6 |
| 20260905063533 | 55 | 302 | 1.0 | 3.0 | 0.00 | 0.26 | 0.00 | 78 | 1016.4 |
| 20260905063052 | 54 | 301 | 1.0 | 2.0 | 0.00 | 0.26 | 0.00 | 78 | 1016.4 |
| 20260905062531 | 54 | 234 | 1.0 | 3.0 | 0.00 | 0.26 | 0.00 | 78 | 1016.4 |
| 20260905062031 | 54 | 286 | 1.0 | 3.0 | 0.00 | 0.26 | 0.00 | 77 | 1016.4 |
| 20260905061551 | 54 | 291 | 1.0 | 3.0 | 0.00 | 0.26 | 0.00 | 77 | 1016.4 |
| 20260905061031 | 54 | 229 | 1.0 | 3.0 | 0.00 | 0.26 | 0.00 | 78 | 1016.2 |
| 20260905060531 | 54 | 243 | 0.0 | 3.0 | 0.00 | 0.26 | 0.00 | 78 | 1016.2 |
| 20260905060053 | 54 | 266 | 0.0 | 2.0 | 0.00 | 0.26 | 0.00 | 78 | 1016.2 |
| 20260905055532 | 54 | 252 | 0.0 | 5.0 | 0.00 | 0.29 | 0.00 | 77 | 1016.0 |
| 20260905055031 | 54 | 282 | 1.0 | 5.0 | 0.00 | 0.29 | 0.00 | 77 | 1015.8 |
| 20260905054553 | 54 | 283 | 1.0 | 6.0 | 0.00 | 0.29 | 0.00 | 77 | 1015.6 |
| 20260905054030 | 54 | 288 | 2.0 | 6.0 | 0.00 | 0.29 | 0.00 | 77 | 1015.6 |
| 20260905053531 | 55 | 304 | 2.0 | 6.0 | 0.00 | 0.29 | 0.00 | 77 | 1015.5 |
| 20260905053046 | 55 | 242 | 2.0 | 7.0 | 0.00 | 0.29 | 0.00 | 77 | 1015.5 |
| 20260905052531 | 55 | 267 | 1.0 | 7.0 | 0.00 | 0.29 | 0.00 | 77 | 1015.3 |
| 20260905052031 | 55 | 294 | 1.0 | 5.0 | 0.00 | 0.29 | 0.00 | 77 | 1015.3 |
| 20260905051550 | 55 | 221 | 1.0 | 3.0 | 0.00 | 0.29 | 0.00 | 77 | 1015.2 |
| 20260905051031 | 55 | 257 | 2.0 | 4.0 | 0.00 | 0.29 | 0.00 | 77 | 1015.1 |
| 20260905050531 | 55 | 282 | 0.0 | 4.0 | 0.00 | 0.29 | 0.00 | 77 | 1015.0 |
| 20260905050043 | 54 | 300 | 1.0 | 4.0 | 0.00 | 0.29 | 0.00 | 78 | 1015.0 |
| 20260905045531 | 54 | 291 | 1.0 | 4.0 | 0.00 | 0.29 | 0.00 | 78 | 1015.0 |
| 20260905045033 | 54 | 297 | 1.0 | 4.0 | 0.00 | 0.29 | 0.00 | 78 | 1014.9 |
| 20260905044547 | 54 | 314 | 1.0 | 4.0 | 0.00 | 0.29 | 0.00 | 78 | 1014.9 |
| 20260905044030 | 54 | 274 | 1.0 | 4.0 | 0.00 | 0.29 | 0.00 | 77 | 1014.8 |
| 20260905043530 | 54 | 259 | 1.0 | 3.0 | 0.00 | 0.29 | 0.00 | 77 | 1014.9 |
| 20260905043055 | 54 | 309 | 1.0 | 3.0 | 0.00 | 0.29 | 0.00 | 77 | 1014.7 |
| 20260905042532 | 54 | 288 | 1.0 | 3.0 | 0.00 | 0.29 | 0.00 | 77 | 1014.6 |
| 20260905042031 | 54 | 269 | 1.0 | 3.0 | 0.00 | 0.29 | 0.00 | 77 | 1014.7 |
| 20260905041554 | 54 | 283 | 1.0 | 4.0 | 0.00 | 0.29 | 0.00 | 77 | 1014.5 |
| 20260905041034 | 54 | 258 | 2.0 | 4.0 | 0.00 | 0.29 | 0.00 | 77 | 1014.7 |
| 20260905040531 | 54 | 290 | 1.0 | 4.0 | 0.00 | 0.29 | 0.00 | 77 | 1014.6 |
| 20260905040052 | 55 | 299 | 1.0 | 5.0 | 0.00 | 0.29 | 0.00 | 77 | 1014.4 |
| 20260905035530 | 55 | 269 | 2.0 | 5.0 | 0.00 | 0.30 | 0.00 | 77 | 1014.3 |
| 20260905035030 | 55 | 233 | 1.0 | 5.0 | 0.00 | 0.30 | 0.00 | 77 | 1014.3 |
| 20260905034543 | 55 | 299 | 2.0 | 7.0 | 0.00 | 0.30 | 0.00 | 77 | 1014.1 |
| 20260905034031 | 55 | 311 | 2.0 | 7.0 | 0.00 | 0.30 | 0.00 | 77 | 1013.9 |
| 20260905033531 | 54 | 269 | 2.0 | 7.0 | 0.00 | 0.30 | 0.00 | 77 | 1013.8 |
| 20260905033052 | 54 | 302 | 2.0 | 6.0 | 0.00 | 0.30 | 0.00 | 77 | 1013.8 |
| 20260905032530 | 54 | 216 | 2.0 | 6.0 | 0.00 | 0.30 | 0.00 | 78 | 1013.6 |
| 20260905032031 | 54 | 257 | 2.0 | 6.0 | 0.00 | 0.30 | 0.00 | 78 | 1013.8 |
| 20260905031553 | 54 | 255 | 2.0 | 6.0 | 0.00 | 0.30 | 0.00 | 77 | 1013.7 |
| 20260905031031 | 54 | 272 | 2.0 | 5.0 | 0.00 | 0.30 | 0.00 | 77 | 1013.7 |
| 20260905030531 | 54 | 281 | 2.0 | 6.0 | 0.00 | 0.30 | 0.00 | 78 | 1013.6 |
| 20260905030047 | 54 | 297 | 2.0 | 6.0 | 0.00 | 0.30 | 0.00 | 78 | 1013.7 |
| 20260905025533 | 54 | 290 | 1.0 | 5.0 | 0.00 | 0.33 | 0.00 | 78 | 1013.8 |
| 20260905025030 | 54 | 291 | 3.0 | 5.0 | 0.00 | 0.33 | 0.00 | 78 | 1013.6 |
| 20260905024543 | 54 | 257 | 2.0 | 5.0 | 0.00 | 0.33 | 0.00 | 78 | 1013.5 |
| 20260905024030 | 53 | 295 | 1.0 | 5.0 | 0.00 | 0.33 | 0.00 | 78 | 1013.5 |
| 20260905023532 | 53 | 271 | 1.0 | 3.0 | 0.00 | 0.33 | 0.00 | 78 | 1013.5 |
| 20260905023052 | 53 | 284 | 1.0 | 3.0 | 0.00 | 0.33 | 0.00 | 78 | 1013.3 |
| 20260905022532 | 53 | 283 | 1.0 | 4.0 | 0.00 | 0.33 | 0.00 | 78 | 1013.2 |
| 20260905022032 | 54 | 277 | 1.0 | 4.0 | 0.00 | 0.33 | 0.00 | 78 | 1013.2 |
| 20260905021549 | 54 | 274 | 2.0 | 6.0 | 0.00 | 0.33 | 0.00 | 78 | 1013.1 |
| 20260905021031 | 54 | 311 | 2.0 | 7.0 | 0.00 | 0.33 | 0.00 | 78 | 1013.1 |
| 20260905020531 | 54 | 325 | 1.0 | 7.0 | 0.00 | 0.33 | 0.00 | 78 | 1013.1 |
| 20260905020057 | 54 | 314 | 2.0 | 5.0 | 0.00 | 0.33 | 0.00 | 78 | 1012.9 |
| 20260905015530 | 54 | 271 | 2.0 | 5.0 | 0.00 | 0.34 | 0.00 | 78 | 1012.6 |
| 20260905015032 | 54 | 292 | 2.0 | 5.0 | 0.00 | 0.34 | 0.00 | 79 | 1012.8 |
| 20260905014557 | 54 | 285 | 2.0 | 4.0 | 0.00 | 0.34 | 0.00 | 79 | 1012.7 |
| 20260905014031 | 54 | 290 | 2.0 | 5.0 | 0.00 | 0.34 | 0.00 | 79 | 1012.7 |
| 20260905013532 | 54 | 287 | 2.0 | 5.0 | 0.00 | 0.34 | 0.00 | 79 | 1012.7 |
| 20260905013100 | 54 | 285 | 2.0 | 4.0 | 0.00 | 0.34 | 0.00 | 79 | 1012.7 |
| 20260905012531 | 54 | 283 | 2.0 | 6.0 | 0.00 | 0.34 | 0.00 | 79 | 1012.6 |
| 20260905012031 | 54 | 325 | 1.0 | 6.0 | 0.00 | 0.34 | 0.00 | 79 | 1012.6 |
| 20260905011545 | 54 | 247 | 2.0 | 5.0 | 0.00 | 0.34 | 0.00 | 79 | 1012.5 |
| 20260905011031 | 54 | 259 | 2.0 | 5.0 | 0.00 | 0.34 | 0.00 | 79 | 1012.6 |
| 20260905010532 | 54 | 269 | 2.0 | 4.0 | 0.00 | 0.34 | 0.00 | 80 | 1012.6 |
| 20260905010054 | 54 | 266 | 1.0 | 4.0 | 0.00 | 0.34 | 0.00 | 80 | 1012.5 |
| 20260905005531 | 54 | 285 | 1.0 | 4.0 | 0.00 | 0.35 | 0.00 | 80 | 1012.4 |
| 20260905005031 | 54 | 276 | 1.0 | 4.0 | 0.00 | 0.35 | 0.00 | 80 | 1012.3 |
| 20260905004611 | 54 | 281 | 1.0 | 4.0 | 0.00 | 0.35 | 0.00 | 80 | 1012.4 |
| 20260905004031 | 54 | 276 | 1.0 | 4.0 | 0.00 | 0.35 | 0.00 | 79 | 1012.3 |
| 20260905003533 | 54 | 291 | 2.0 | 4.0 | 0.00 | 0.35 | 0.00 | 80 | 1012.3 |
| 20260905003050 | 54 | 308 | 1.0 | 5.0 | 0.00 | 0.35 | 0.00 | 79 | 1012.2 |
| 20260905002530 | 54 | 273 | 2.0 | 5.0 | 0.00 | 0.35 | 0.00 | 79 | 1012.2 |
| 20260905002031 | 54 | 242 | 2.0 | 5.0 | 0.00 | 0.35 | 0.00 | 80 | 1012.1 |
| 20260905001555 | 54 | 252 | 1.0 | 6.0 | 0.00 | 0.35 | 0.00 | 80 | 1012.3 |
| 20260905001031 | 54 | 282 | 2.0 | 6.0 | 0.00 | 0.35 | 0.00 | 80 | 1012.1 |
| 20260905000531 | 55 | 302 | 1.0 | 7.0 | 0.00 | 0.35 | 0.00 | 80 | 1012.0 |
| 20260905000044 | 55 | 283 | 2.0 | 7.0 | 0.00 | 0.35 | 0.00 | 80 | 1011.8 |
| 20260904235532 | 55 | 224 | 2.0 | 7.0 | 0.00 | 0.43 | 0.00 | 80 | 1011.7 |
| 20260904235036 | 55 | 299 | 2.0 | 6.0 | 0.00 | 0.43 | 0.00 | 80 | 1011.7 |
| 20260904234554 | 55 | 287 | 1.0 | 5.0 | 0.00 | 0.43 | 0.00 | 79 | 1011.6 |
| 20260904234031 | 55 | 297 | 1.0 | 4.0 | 0.00 | 0.43 | 0.00 | 79 | 1011.5 |
| 20260904233531 | 55 | 247 | 1.0 | 4.0 | 0.00 | 0.43 | 0.00 | 79 | 1011.5 |
| 20260904233051 | 56 | 319 | 1.0 | 4.0 | 0.00 | 0.43 | 0.00 | 79 | 1011.5 |
| 20260904232532 | 56 | 289 | 1.0 | 4.0 | 0.00 | 0.43 | 0.00 | 79 | 1011.3 |
| 20260904232030 | 55 | 283 | 2.0 | 4.0 | 0.00 | 0.43 | 0.00 | 79 | 1011.1 |
| 20260904231547 | 55 | 288 | 1.0 | 3.0 | 0.00 | 0.43 | 0.00 | 79 | 1011.0 |
| 20260904231031 | 55 | 271 | 1.0 | 4.0 | 0.00 | 0.43 | 0.00 | 79 | 1010.9 |
| 20260904230531 | 55 | 269 | 1.0 | 4.0 | 0.00 | 0.43 | 0.00 | 79 | 1010.9 |
| 20260904225531 | 56 | 268 | 1.0 | 4.0 | 0.00 | 0.44 | 0.43 | 79 | 1010.9 |
| 20260904225031 | 56 | 300 | 1.0 | 5.0 | 0.00 | 0.44 | 0.43 | 79 | 1010.9 |
| 20260904224543 | 56 | 265 | 2.0 | 5.0 | 0.00 | 0.44 | 0.43 | 79 | 1010.8 |
| 20260904224034 | 56 | 283 | 1.0 | 4.0 | 0.00 | 0.44 | 0.43 | 80 | 1010.8 |
| 20260904223536 | 56 | 282 | 1.0 | 5.0 | 0.00 | 0.44 | 0.43 | 80 | 1010.8 |
| 20260904223052 | 56 | 236 | 2.0 | 5.0 | 0.00 | 0.44 | 0.43 | 80 | 1010.6 |
| 20260904222531 | 56 | 293 | 1.0 | 4.0 | 0.00 | 0.44 | 0.43 | 81 | 1010.6 |
| 20260904222031 | 56 | 303 | 1.0 | 4.0 | 0.00 | 0.44 | 0.43 | 81 | 1010.4 |
| 20260904221552 | 56 | 256 | 1.0 | 4.0 | 0.00 | 0.44 | 0.43 | 81 | 1010.6 |
| 20260904221031 | 56 | 245 | 1.0 | 4.0 | 0.00 | 0.44 | 0.43 | 80 | 1010.4 |
| 20260904220531 | 56 | 311 | 1.0 | 3.0 | 0.00 | 0.44 | 0.43 | 80 | 1010.4 |
| 20260904220050 | 56 | 290 | 1.0 | 3.0 | 0.00 | 0.44 | 0.43 | 80 | 1010.3 |
| 20260904215531 | 56 | 254 | 1.0 | 3.0 | 0.00 | 0.45 | 0.43 | 80 | 1010.4 |
| 20260904215030 | 56 | 302 | 0.0 | 3.0 | 0.00 | 0.45 | 0.43 | 80 | 1010.3 |
| 20260904214545 | 56 | 295 | 1.0 | 3.0 | 0.00 | 0.45 | 0.43 | 80 | 1010.4 |
| 20260904214031 | 56 | 269 | 0.0 | 4.0 | 0.00 | 0.45 | 0.43 | 80 | 1010.3 |
| 20260904213531 | 56 | 252 | 1.0 | 4.0 | 0.00 | 0.45 | 0.43 | 80 | 1010.4 |
| 20260904213051 | 56 | 287 | 1.0 | 3.0 | 0.00 | 0.45 | 0.43 | 80 | 1010.4 |
| 20260904212531 | 56 | 326 | 1.0 | 3.0 | 0.00 | 0.45 | 0.43 | 81 | 1010.3 |
| 20260904212031 | 56 | 266 | 1.0 | 3.0 | 0.00 | 0.45 | 0.43 | 81 | 1010.3 |
| 20260904211543 | 56 | 245 | 1.0 | 3.0 | 0.00 | 0.45 | 0.43 | 81 | 1010.3 |
| 20260904211030 | 56 | 283 | 1.0 | 3.0 | 0.00 | 0.45 | 0.43 | 81 | 1010.2 |
| 20260904210530 | 56 | 259 | 1.0 | 4.0 | 0.00 | 0.45 | 0.43 | 81 | 1010.0 |
| 20260904210044 | 56 | 271 | 1.0 | 4.0 | 0.00 | 0.45 | 0.43 | 81 | 1010.1 |
| 20260904205530 | 56 | 250 | 1.0 | 3.0 | 0.00 | 0.47 | 0.43 | 82 | 1010.1 |
| 20260904205034 | 56 | 285 | 1.0 | 4.0 | 0.00 | 0.47 | 0.43 | 81 | 1010.0 |
| 20260904204550 | 56 | 300 | 1.0 | 4.0 | 0.00 | 0.47 | 0.43 | 81 | 1009.9 |
| 20260904204031 | 57 | 293 | 1.0 | 4.0 | 0.00 | 0.47 | 0.43 | 80 | 1009.7 |
| 20260904203531 | 57 | 257 | 1.0 | 3.0 | 0.00 | 0.47 | 0.43 | 80 | 1009.6 |
| 20260904203047 | 57 | 284 | 1.0 | 5.0 | 0.00 | 0.47 | 0.43 | 80 | 1009.5 |
| 20260904202530 | 56 | 274 | 2.0 | 6.0 | 0.00 | 0.47 | 0.43 | 80 | 1009.5 |
| 20260904202030 | 56 | 301 | 2.0 | 6.0 | 0.00 | 0.47 | 0.43 | 80 | 1009.5 |
| 20260904201544 | 56 | 297 | 2.0 | 7.0 | 0.00 | 0.47 | 0.43 | 81 | 1009.5 |
| 20260904201033 | 56 | 277 | 2.0 | 7.0 | 0.00 | 0.47 | 0.43 | 81 | 1009.4 |
| 20260904200533 | 56 | 225 | 2.0 | 6.0 | 0.00 | 0.47 | 0.43 | 81 | 1009.5 |
| 20260904200053 | 56 | 262 | 2.0 | 6.0 | 0.00 | 0.47 | 0.43 | 81 | 1009.3 |
| 20260904195533 | 56 | 288 | 3.0 | 6.0 | 0.00 | 0.51 | 0.43 | 81 | 1009.2 |
| 20260904195033 | 56 | 279 | 2.0 | 6.0 | 0.00 | 0.51 | 0.43 | 81 | 1009.2 |
| 20260904194553 | 56 | 305 | 3.0 | 6.0 | 0.00 | 0.51 | 0.43 | 81 | 1009.2 |
| 20260904194031 | 56 | 290 | 2.0 | 5.0 | 0.00 | 0.51 | 0.43 | 81 | 1009.0 |
| 20260904193531 | 56 | 268 | 1.0 | 4.0 | 0.00 | 0.51 | 0.43 | 81 | 1009.1 |
| 20260904193047 | 56 | 304 | 2.0 | 5.0 | 0.00 | 0.51 | 0.43 | 80 | 1009.2 |
| 20260904192533 | 57 | 314 | 2.0 | 5.0 | 0.00 | 0.51 | 0.43 | 80 | 1009.1 |
| 20260904192034 | 56 | 283 | 2.0 | 7.0 | 0.00 | 0.51 | 0.43 | 80 | 1009.1 |
| 20260904191553 | 56 | 280 | 2.0 | 7.0 | 0.00 | 0.51 | 0.43 | 80 | 1009.1 |
| 20260904191033 | 57 | 273 | 3.0 | 7.0 | 0.00 | 0.51 | 0.43 | 80 | 1008.9 |
| 20260904190533 | 57 | 280 | 2.0 | 6.0 | 0.00 | 0.51 | 0.43 | 80 | 1008.9 |
| 20260904190055 | 57 | 319 | 2.0 | 6.0 | 0.00 | 0.51 | 0.43 | 80 | 1009.0 |
| 20260904185532 | 57 | 277 | 2.0 | 5.0 | 0.00 | 0.52 | 0.43 | 80 | 1009.0 |
| 20260904185032 | 57 | 295 | 2.0 | 5.0 | 0.00 | 0.52 | 0.43 | 80 | 1009.0 |
| 20260904184549 | 57 | 302 | 2.0 | 5.0 | 0.00 | 0.52 | 0.43 | 80 | 1008.8 |
| 20260904184034 | 57 | 219 | 1.0 | 6.0 | 0.00 | 0.52 | 0.43 | 81 | 1008.9 |
| 20260904183532 | 57 | 269 | 2.0 | 6.0 | 0.00 | 0.52 | 0.43 | 81 | 1009.1 |
| 20260904183058 | 57 | 295 | 2.0 | 6.0 | 0.00 | 0.52 | 0.43 | 80 | 1008.9 |
| 20260904182534 | 57 | 311 | 2.0 | 6.0 | 0.00 | 0.52 | 0.43 | 80 | 1008.7 |
| 20260904182032 | 57 | 241 | 2.0 | 6.0 | 0.00 | 0.52 | 0.43 | 80 | 1008.8 |
| 20260904181553 | 57 | 266 | 2.0 | 4.0 | 0.00 | 0.52 | 0.43 | 79 | 1008.8 |
| 20260904181032 | 58 | 284 | 1.0 | 4.0 | 0.00 | 0.52 | 0.43 | 78 | 1008.7 |
| 20260904180534 | 58 | 82 | 1.0 | 5.0 | 0.00 | 0.52 | 0.43 | 78 | 1008.6 |
| 20260904180051 | 58 | 285 | 1.0 | 5.0 | 0.00 | 0.52 | 0.43 | 79 | 1008.6 |
| 20260904175532 | 58 | 271 | 1.0 | 5.0 | 0.00 | 0.54 | 0.43 | 79 | 1008.6 |
| 20260904175032 | 58 | 336 | 2.0 | 3.0 | 0.00 | 0.54 | 0.43 | 79 | 1008.7 |
| 20260904174550 | 58 | 210 | 1.0 | 4.0 | 0.00 | 0.54 | 0.43 | 79 | 1008.8 |
| 20260904174031 | 58 | 288 | 0.0 | 4.0 | 0.00 | 0.54 | 0.43 | 79 | 1008.7 |
| 20260904173531 | 58 | 260 | 1.0 | 3.0 | 0.00 | 0.54 | 0.43 | 79 | 1008.7 |
| 20260904173046 | 58 | 256 | 1.0 | 3.0 | 0.00 | 0.54 | 0.43 | 79 | 1008.8 |
| 20260904172532 | 58 | 276 | 1.0 | 3.0 | 0.00 | 0.54 | 0.43 | 79 | 1008.7 |
| 20260904172033 | 58 | 293 | 0.0 | 3.0 | 0.00 | 0.54 | 0.43 | 79 | 1008.7 |
| 20260904171554 | 58 | 295 | 1.0 | 3.0 | 0.00 | 0.54 | 0.43 | 79 | 1008.7 |
| 20260904171033 | 59 | 238 | 0.0 | 4.0 | 0.00 | 0.54 | 0.43 | 79 | 1008.5 |
| 20260904170532 | 58 | 340 | 1.0 | 4.0 | 0.00 | 0.54 | 0.43 | 79 | 1008.6 |
| 20260904170053 | 58 | 273 | 1.0 | 4.0 | 0.00 | 0.54 | 0.43 | 79 | 1008.5 |
| 20260904165532 | 58 | 293 | 1.0 | 4.0 | 0.00 | 0.54 | 0.43 | 79 | 1008.4 |
| 20260904165032 | 57 | 32 | 2.0 | 4.0 | 0.00 | 0.54 | 0.43 | 79 | 1008.3 |
| 20260904164549 | 58 | 223 | 1.0 | 5.0 | 0.00 | 0.54 | 0.43 | 79 | 1008.2 |
| 20260904164032 | 58 | 271 | 1.0 | 5.0 | 0.00 | 0.53 | 0.42 | 78 | 1008.1 |
| 20260904163533 | 59 | 274 | 2.0 | 5.0 | 0.00 | 0.53 | 0.42 | 76 | 1008.0 |
| 20260904163044 | 60 | 294 | 1.0 | 5.0 | 0.00 | 0.53 | 0.42 | 75 | 1007.8 |
| 20260904162535 | 60 | 270 | 1.0 | 5.0 | 0.00 | 0.53 | 0.42 | 74 | 1007.6 |
| 20260904162032 | 60 | 42 | 1.0 | 4.0 | 0.00 | 0.53 | 0.42 | 75 | 1007.8 |
| 20260904161545 | 61 | 243 | 1.0 | 4.0 | 0.00 | 0.53 | 0.42 | 74 | 1007.7 |
| 20260904161033 | 61 | 240 | 1.0 | 4.0 | 0.00 | 0.53 | 0.42 | 74 | 1007.5 |
| 20260904160532 | 61 | 248 | 1.0 | 5.0 | 0.00 | 0.53 | 0.42 | 75 | 1007.5 |
| 20260904160104 | 61 | 264 | 1.0 | 5.0 | 0.00 | 0.53 | 0.42 | 75 | 1007.5 |
| 20260904155532 | 61 | 287 | 1.0 | 5.0 | 0.00 | 0.53 | 0.42 | 75 | 1007.3 |
| 20260904155031 | 61 | 265 | 1.0 | 5.0 | 0.00 | 0.53 | 0.42 | 75 | 1007.3 |
| 20260904154551 | 61 | 247 | 2.0 | 7.0 | 0.00 | 0.53 | 0.42 | 75 | 1007.2 |
| 20260904154030 | 61 | 238 | 1.0 | 7.0 | 0.00 | 0.53 | 0.42 | 76 | 1007.0 |
| 20260904153530 | 61 | 300 | 1.0 | 5.0 | 0.00 | 0.53 | 0.42 | 76 | 1006.9 |
| 20260904153105 | 61 | 261 | 2.0 | 5.0 | 0.00 | 0.53 | 0.42 | 75 | 1006.8 |
| 20260904152532 | 61 | 252 | 1.0 | 5.0 | 0.00 | 0.53 | 0.42 | 77 | 1006.7 |
| 20260904152030 | 60 | 266 | 2.0 | 5.0 | 0.00 | 0.53 | 0.42 | 77 | 1006.7 |
| 20260904151552 | 60 | 267 | 2.0 | 5.0 | 0.00 | 0.53 | 0.42 | 77 | 1006.6 |
| 20260904151034 | 60 | 267 | 2.0 | 5.0 | 0.00 | 0.53 | 0.42 | 77 | 1006.7 |
| 20260904150530 | 60 | 278 | 2.0 | 4.0 | 0.00 | 0.53 | 0.42 | 76 | 1006.7 |
| 20260904145530 | 61 | 25 | 2.0 | 5.0 | 0.00 | 0.53 | 0.42 | 75 | 1006.4 |
| 20260904145030 | 61 | 293 | 1.0 | 6.0 | 0.00 | 0.53 | 0.42 | 74 | 1006.3 |
| 20260904144547 | 61 | 275 | 2.0 | 6.0 | 0.00 | 0.53 | 0.42 | 74 | 1006.4 |
| 20260904144030 | 61 | 269 | 2.0 | 9.0 | 0.00 | 0.53 | 0.42 | 73 | 1006.2 |
| 20260904143530 | 61 | 290 | 2.0 | 9.0 | 0.00 | 0.53 | 0.42 | 73 | 1006.2 |
| 20260904143052 | 61 | 268 | 3.0 | 7.0 | 0.00 | 0.53 | 0.42 | 73 | 1006.1 |
| 20260904142531 | 61 | 304 | 3.0 | 7.0 | 0.00 | 0.52 | 0.41 | 73 | 1006.0 |
| 20260904142032 | 62 | 330 | 2.0 | 6.0 | 0.00 | 0.52 | 0.41 | 74 | 1005.9 |
| 20260904141554 | 62 | 275 | 2.0 | 7.0 | 0.00 | 0.52 | 0.41 | 74 | 1006.0 |
| 20260904141030 | 61 | 289 | 2.0 | 7.0 | 0.00 | 0.52 | 0.41 | 73 | 1006.0 |
| 20260904140536 | 61 | 246 | 2.0 | 7.0 | 0.00 | 0.52 | 0.41 | 74 | 1006.0 |
| 20260904140057 | 61 | 302 | 2.0 | 6.0 | 0.00 | 0.52 | 0.41 | 73 | 1005.9 |